Location: Alafon
(8.4500°N, 4.2333°E)
Time: 16:07:09
(UTC+00:00)

Transit 2A - Pass Details

Date: 08 August 2021
Orbit: 595 x 964 km, 66.7° (Epoch: 18 September)

Event Time Altitude Azimuth Distance (km) Brightness Sun altitude
Rises 13:31:23 0° 357° (N) 3,487 9.5 63.8°
Reaches altitude 10° 13:34:06 10° 7° (N) 2,594 9.0 63.2°
Maximum altitude 13:39:28 32° 69° (ENE) 1,568 7.8 61.9°
Drops below altitude 10° 13:45:00 10° 130° (SE) 2,692 8.7 60.6°
Sets 13:47:52 0° 139° (SE) 3,639 9.2 60.0°
